Погода в Караколе

Россия / Республика Алтай     50°48′52″N   85°56′42″E
темп.,
°C
ветер,
м/с
пор.,
м/с
влажн.,
%
обл.,
%
осадки,
мм/ч
давл.,
гПа
погр.,
м
12 мая, ср
ср1201:00+4зсз1295100 5.9 1015479
04:00+3сз129593 0.3 1015279
07:00+3сз119091 0.4 1016276
10:00+5сз127485 0.1 1015777
13:00+7ссз2365100 0.5 10131301
16:00+7ссз2372100 1.9 1013787
19:00+6зсз247598 3.2 1015817
22:00+4зсз228793 0.5 101756
13 мая, чт
чт1301:00+4сз128998 0.9 1018208
04:00+3зсз119256 0.2 101842
07:00+3з1191100 0.3 1019182
10:00+5ссз117987 0.2 1017605
13:00+10ссз015767 0.7 10151246
16:00+11сз124952 1.0 10121575
19:00+10зсз2254100 1.8 10121164
22:00+6всв018994 2.3 1015222
14 мая, пт
пт1401:00+5вюв1190100 2.8 101474
04:00+4вюв119094 0.1 101321
07:00+4с118981 0.1 1014152
10:00+6сз227881 0.8 1014729
13:00+6ссз338499 2.3 1016844
16:00+4сз3496100 1.2 1019626
19:00+4сз229095 1.7 1022427
22:00+3ссз229298 0.8 1025351
15 мая, сб
сб1501:00+2с118278 0.9 1026185
04:00+2зсз018374 0.0 102677
07:00+2с00776 0.0 1027225
10:00+7всв116268 0.0 1026789
13:00+10ссв21475 0.0 10231136
16:00+13ссв12392 0.0 10211381
19:00+12ссв12413 0.0 10211245
22:00+7сз01595 0.0 102311
16 мая, вс
вс1601:00+5ююз116589 0.0 102210
04:00+5ю1168100 0.0 102210
07:00+6юв11679 0.0 102148
10:00+12всв115210 0.0 1019633
13:00+15ссз22403 0.0 10171598
16:00+17ссз233446 0.0 10142266
19:00+15ссз2350100 0.1 1015598
22:00+9юз117218 0.3 101715